sat.trackr.live / text

‹ back to catalog

KUIPER-00192

NORAD 68575 · 2026-072C

PAYLOAD ACTIVE UNKNOWN

§ Identity

Operator
Country
US
Launch date
2026-04-04
Launch site
AFETR
Launch vehicle
Mass (kg)
RCS (m²)

External: N2YO · Heavens-Above · Gunter

§ Orbital elements

Epoch: 2026-09-20T00:56:36.072960Z

Period
97.30 min
Inclination
51.9000°
Eccentricity
0.0001070
Mean motion
14.79937964 rev/d
Perigee alt
628.8 km
Apogee alt
630.3 km
Semi-major
7,007.7 km
B*
2.8609e-4
RAAN
133.7113°
Arg perigee
101.0749°
Mean anomaly
259.0333°
Rev number
2,520

§ Raw data

KUIPER-001921 68575U 26072C   26263.03930640  .00001961  00000+0  28609-3 0  99962 68575  51.9000 133.7113 0001070 101.0749 259.0333 14.79937964 25200

JSON: /api/v1/satellites/68575 · /tle

For live sub-satellite position, see the globe view (requires WebGL).

§ Visibility from observer

Set your observer location to see the next 7 days of passes ≥ 10°. The values pass through the URL so the page stays shareable.

No JS? Fill the form by hand. The geolocation button needs JavaScript.